CZ-6A DEB, 61087

Orbit data source: Space-Track

CZ-6A DEB, 61087 is space debris in LEO originally from a launch on Tue, 06 Aug 2024 UTC launched from the Taiyaun Space Center, China (TSC). Debris objects in space refer to the collection of defunct objects orbiting the Earth. Examples of debris include non-operational satellites, rocket bodies, and fragments generated from explosions, collisions, or faulty payload assembly.

Loading next visibility...
Identifier
61087, 2024-140ND
Orbit
LEO
Country
Flag of CNCN / PRC
Related business
Manufacturer
SAST
Mission
Spacecraft
Bus & Motor
Unknown
Mass
Unknown
Launch date (UTC)
2024-08-06 (2 years ago)
Launch vehicle
Unknown
Launch site
Taiyaun Space Center, China (TSC)
Object type
Payload
Rocket body
Debris
Shape & HBR
Unknown shape, 0.1 m
Radar Cross Section
Medium (>0.1 m² and <1 m²)

Expand to show TLE details & history
Last TLE update: 16 hours ago

TLE from 16 hours ago
0 CZ-6A DEB
1 61087U 24140ND  26171.19364313  .00001073  00000-0  24283-3 0  9993
2 61087  88.9121 262.6897 0092224 255.8114 103.2836 14.52872900 96161
Epoch: 2026-06-20T04:38Z
TLE epoch observation values (Epoch: 2026-06-20T04:38:50.766Z)
Latitude
0.00002°
Longitude
-75.4336°
Altitude
734.987 km
Speed
7.479 km/s
True Right ascension
17h 30m 45s
True Declination
0° 00' 00"
Sunlit
Object was in full shadow at epoch
Visualization orbit readout
Latitude
Unknown
Longitude
Unknown
Altitude
Unknown
Speed
Unknown
Apparent Right ascension
Unknown
Apparent Declination
Unknown
Sunlit
N/A
Visualization observer readout
Local Sidereal Time
07:23:45
Azimuth
Unknown
Elevation
Unknown
Doppler factor
Unknown
Orbital elements
Apogee altitude
778.584 km
Perigee altitude
647.786 km
Semi-major axis
7,091.322 km
Eccentricity
0.00922
Inclination
88.9121°
RAAN
262.6897°
Arg. of periapsis
255.8114°
True anomaly
104.30936°
Mean anomaly
103.2836°
Eccentric anomaly
103.79676°
Mean motion
3.63456 °/min
Orbital period
99.05 mins
BSTAR
0.00024283
Loading maneuver chart data...
Computing Atmospheric mass density...
Loading historical data...
Loading historical data...
Loading historical data...
Loading historical data...
Loading historical data...
Loading historical data...
Loading historical data...

Documentation

Showing up to 5 results
|